TimeEDT,TemperatureF,Dew PointF,Humidity,Sea Level PressureIn,VisibilityMPH,Wind Direction,Wind SpeedMPH,Gust SpeedMPH,PrecipitationIn,Events,Conditions,WindDirDegrees,DateUTC
12:53 AM,75.0,71.1,87,30.16,10.0,Calm,Calm,-,N/A,,Clear,0,2013-06-23 04:53:00
1:53 AM,73.0,71.1,93,30.15,8.0,Calm,Calm,-,N/A,,Clear,0,2013-06-23 05:53:00
2:53 AM,73.0,71.1,93,30.14,8.0,ESE,3.5,-,N/A,,Scattered Clouds,110,2013-06-23 06:53:00
3:53 AM,72.0,71.1,97,30.14,7.0,SSE,4.6,-,N/A,,Clear,150,2013-06-23 07:53:00
4:39 AM,73.4,71.6,94,30.14,7.0,Calm,Calm,-,N/A,,Partly Cloudy,0,2013-06-23 08:39:00
4:53 AM,73.0,71.1,93,30.14,6.0,Calm,Calm,-,N/A,,Partly Cloudy,0,2013-06-23 08:53:00
5:53 AM,72.0,70.0,93,30.14,5.0,Calm,Calm,-,N/A,,Clear,0,2013-06-23 09:53:00
6:42 AM,71.6,69.8,94,30.16,2.0,Calm,Calm,-,N/A,,Clear,0,2013-06-23 10:42:00
6:45 AM,71.6,69.8,94,30.16,1.2,Calm,Calm,-,N/A,,Clear,0,2013-06-23 10:45:00
6:53 AM,72.0,70.0,93,30.16,1.0,Calm,Calm,-,N/A,,Partly Cloudy,0,2013-06-23 10:53:00
6:58 AM,71.6,69.8,94,30.17,3.0,Calm,Calm,-,N/A,,Partly Cloudy,0,2013-06-23 10:58:00
7:19 AM,73.4,71.6,94,30.18,5.0,Calm,Calm,-,N/A,,Mostly Cloudy,0,2013-06-23 11:19:00
7:53 AM,73.9,72.0,93,30.18,5.0,Calm,Calm,-,N/A,,Overcast,0,2013-06-23 11:53:00
8:53 AM,77.0,72.0,84,30.20,10.0,Calm,Calm,-,N/A,,Scattered Clouds,0,2013-06-23 12:53:00
9:53 AM,80.1,72.0,76,30.20,10.0,Calm,Calm,-,N/A,,Partly Cloudy,0,2013-06-23 13:53:00
10:53 AM,81.0,70.0,69,30.19,10.0,SSE,3.5,-,N/A,,Scattered Clouds,160,2013-06-23 14:53:00
11:53 AM,82.0,71.1,69,30.20,10.0,SSE,3.5,-,N/A,,Scattered Clouds,160,2013-06-23 15:53:00
12:38 PM,82.4,69.8,66,30.19,10.0,Calm,Calm,-,0.00,,Mostly Cloudy,0,2013-06-23 16:38:00
12:53 PM,86.0,71.1,61,30.18,10.0,North,3.5,-,0.00,,Mostly Cloudy,10,2013-06-23 16:53:00
1:53 PM,87.1,68.0,53,30.17,10.0,Variable,5.8,-,N/A,,Scattered Clouds,0,2013-06-23 17:53:00
2:53 PM,86.0,69.1,57,30.15,10.0,SE,3.5,-,N/A,,Mostly Cloudy,130,2013-06-23 18:53:00
3:53 PM,86.0,69.1,57,30.13,10.0,Calm,Calm,-,N/A,,Partly Cloudy,0,2013-06-23 19:53:00
4:53 PM,86.0,70.0,59,30.13,10.0,Calm,Calm,-,N/A,,Clear,0,2013-06-23 20:53:00
5:53 PM,84.0,73.0,69,30.13,10.0,ESE,8.1,-,N/A,,Mostly Cloudy,120,2013-06-23 21:53:00
6:53 PM,80.1,73.0,79,30.14,10.0,Calm,Calm,-,0.00,,Scattered Clouds,0,2013-06-23 22:53:00
7:53 PM,81.0,73.0,77,30.15,10.0,Calm,Calm,-,N/A,,Mostly Cloudy,0,2013-06-23 23:53:00
8:29 PM,78.8,71.6,78,30.16,10.0,South,3.5,-,N/A,,Scattered Clouds,180,2013-06-24 00:29:00
8:53 PM,78.1,73.0,84,30.16,10.0,Calm,Calm,-,N/A,,Partly Cloudy,0,2013-06-24 00:53:00
9:53 PM,75.9,72.0,87,30.18,10.0,SE,3.5,-,N/A,,Clear,130,2013-06-24 01:53:00
10:53 PM,75.9,73.0,91,30.17,10.0,Calm,Calm,-,N/A,,Clear,0,2013-06-24 02:53:00
11:53 PM,75.0,73.0,94,30.18,10.0,Calm,Calm,-,N/A,,Clear,0,2013-06-24 03:53:00